Le nostre stazioni meteo in Italia

Pubblicità
Il mio iltempo24.it
Kinbrace, Gran Bretagna (99016): Temperatura & dewpoint: 05.12.2018 01:00:00 - 11.12.2018 01:00:00 (GMT)Kinbrace, Gran Bretagna (99016): velocità del vento & gusts: 05.12.2018 01:00:00 - 11.12.2018 01:00:00 (GMT)Kinbrace, Gran Bretagna (99016): direzione del vento: 05.12.2018 01:00:00 - 11.12.2018 01:00:00 (GMT)Kinbrace, Gran Bretagna (99016): precipitazioni: 05.12.2018 01:00:00 - 11.12.2018 01:00:00 (GMT)
Data & Tempo tt [°C] td [°C] ff [km/h] ff [kn] fx [km/h] fx [kn] dd rr [mm]
11.12.2018 01:00:00 3,0 0,0 22 12 - - SE -
11.12.2018 00:00:00 3,3 -0,9 28 15 - - SE 0,0
10.12.2018 23:00:00 3,2 -0,5 28 15 - - SE 0,0
10.12.2018 22:00:00 2,1 -0,2 18 10 - - ESE 0,0
10.12.2018 21:00:00 -1,1 -2,0 5 3 - - S 0,0
10.12.2018 20:00:00 -2,3 -3,0 4 2 - - S 0,0
10.12.2018 19:00:00 -2,5 -3,3 4 2 - - SSE 0,0
10.12.2018 18:00:00 -2,4 -3,2 4 2 - - S 0,0
10.12.2018 17:00:00 -2,1 -3,2 4 2 - - S 0,0
10.12.2018 16:00:00 -1,3 -2,1 4 2 - - S 0,0
10.12.2018 15:00:00 -0,2 -1,1 4 2 - - E 0,0
10.12.2018 14:00:00 0,5 -0,7 8 4 - - SE 0,0
10.12.2018 13:00:00 1,6 -0,2 4 2 - - SSE 0,0
10.12.2018 12:00:00 0,8 -0,7 2 1 - - SSE 0,0
10.12.2018 11:00:00 0,5 -1,0 4 2 - - SSE 0,0
10.12.2018 10:00:00 -0,1 -0,8 11 6 - - E 0,0
10.12.2018 09:00:00 0,8 -0,3 4 2 - - E 0,0
10.12.2018 08:00:00 0,8 -0,3 2 1 - - NE 0,0
10.12.2018 07:00:00 1,2 0,0 9 5 - - N 0,0
10.12.2018 06:00:00 0,4 -0,2 8 4 - - N 0,0
10.12.2018 05:00:00 -0,7 -1,6 2 1 - - ENE 0,0
10.12.2018 04:00:00 0,3 -0,5 4 2 - - SSO 0,0
10.12.2018 03:00:00 0,2 -0,4 4 2 - - NNO 0,0
10.12.2018 02:00:00 0,5 -0,1 5 3 - - NNE 0,0
10.12.2018 01:00:00 0,7 0,1 11 6 - - NO 0,0
10.12.2018 00:00:00 0,7 0,2 11 6 - - NO 0,0
09.12.2018 23:00:00 0,9 0,4 11 6 - - N 0,0
09.12.2018 22:00:00 0,5 0,0 4 2 - - NNE 0,0
09.12.2018 21:00:00 0,2 -0,4 8 4 - - N 0,0
09.12.2018 20:00:00 0,6 0,0 5 3 - - NNO 0,4
09.12.2018 19:00:00 0,2 -0,5 4 2 - - NNE 0,0
09.12.2018 18:00:00 0,9 0,1 2 1 - - ENE 0,4
09.12.2018 17:00:00 1,9 0,9 13 7 - - NO 0,2
09.12.2018 16:00:00 1,2 -0,2 8 4 - - N 0,0
09.12.2018 15:00:00 2,5 -0,2 21 11 - - N 0,2
09.12.2018 14:00:00 4,1 0,8 9 5 - - NO 0,0
09.12.2018 13:00:00 5,0 1,1 16 9 - - NO 0,0
09.12.2018 12:00:00 3,2 0,9 13 7 - - NO 0,0
09.12.2018 11:00:00 2,0 0,2 9 5 - - NNE 0,0
09.12.2018 10:00:00 1,9 -0,3 13 7 - - NNE 0,0
09.12.2018 09:00:00 1,1 -0,6 9 5 - - N 0,0
09.12.2018 08:00:00 2,0 -0,5 13 7 - - N 0,0
09.12.2018 07:00:00 3,0 1,5 15 8 - - N 0,0
09.12.2018 06:00:00 3,4 2,5 15 8 - - N 0,4
09.12.2018 05:00:00 3,4 2,7 13 7 - - N 0,8
09.12.2018 04:00:00 3,0 2,2 13 7 - - N 0,0
09.12.2018 03:00:00 1,5 0,4 8 4 - - NNO 0,2
09.12.2018 02:00:00 2,2 1,0 11 6 - - N 0,0
09.12.2018 01:00:00 2,6 0,8 11 6 - - N 0,0
09.12.2018 00:00:00 3,9 2,6 16 9 - - N 0,2
08.12.2018 23:00:00 3,8 3,0 11 6 - - N 0,2
08.12.2018 22:00:00 3,3 2,4 13 7 - - N 0,2
08.12.2018 21:00:00 3,5 2,9 11 6 - - N 0,2
08.12.2018 20:00:00 3,9 3,3 13 7 - - N 0,0
08.12.2018 19:00:00 4,0 3,5 11 6 - - N 0,0
08.12.2018 18:00:00 4,3 3,6 9 5 - - N 0,0
08.12.2018 17:00:00 4,6 3,9 11 6 - - NO 0,0
08.12.2018 16:00:00 5,1 4,4 11 6 - - N 0,0
08.12.2018 15:00:00 5,3 4,3 15 8 - - NNO 0,0
08.12.2018 14:00:00 6,1 5,1 15 8 - - NNO 0,2
08.12.2018 13:00:00 6,1 5,4 9 5 - - NNO 0,4
08.12.2018 12:00:00 6,0 5,4 16 9 - - NO 0,4
08.12.2018 11:00:00 5,8 5,0 13 7 - - NO 0,2
08.12.2018 10:00:00 4,4 3,6 9 5 - - N 0,0
08.12.2018 09:00:00 5,5 4,5 11 6 - - NO 0,0
08.12.2018 08:00:00 6,0 5,0 21 11 - - NO 0,0
08.12.2018 07:00:00 6,3 5,4 26 14 - - NO 2,0
08.12.2018 06:00:00 6,2 5,4 21 11 - - NO 0,2
08.12.2018 05:00:00 6,4 5,6 29 16 48 26 NO 1,2
08.12.2018 04:00:00 6,5 5,1 29 16 - - NO 0,0
08.12.2018 03:00:00 6,2 5,2 26 14 46 25 NO 0,0
08.12.2018 02:00:00 5,9 4,7 29 16 46 25 NO 0,6
08.12.2018 01:00:00 6,0 5,2 31 17 50 27 NO 1,8
08.12.2018 00:00:00 6,2 5,5 22 12 54 29 NO 1,4
07.12.2018 23:00:00 6,5 4,6 34 18 52 28 ONO 0,4
07.12.2018 22:00:00 7,3 5,0 37 20 63 34 ONO 0,4
07.12.2018 21:00:00 6,5 4,7 26 14 52 28 O 0,0
07.12.2018 20:00:00 6,9 4,7 22 12 46 25 O 0,2
07.12.2018 19:00:00 6,8 4,9 24 13 - - OSO 1,2
07.12.2018 18:00:00 5,1 3,8 26 14 48 26 S 0,8
07.12.2018 17:00:00 4,9 3,5 21 11 - - S 1,4
07.12.2018 16:00:00 4,9 3,3 21 11 50 27 SSO 0,6
07.12.2018 15:00:00 5,2 3,2 29 16 46 25 S 0,2
07.12.2018 14:00:00 5,6 3,2 29 16 50 27 S 0,2
07.12.2018 13:00:00 6,1 3,4 31 17 52 28 S 0,0
07.12.2018 12:00:00 6,2 3,3 35 19 55 30 S 0,0
07.12.2018 11:00:00 5,9 2,9 34 18 52 28 S 0,0
07.12.2018 10:00:00 5,1 2,5 29 16 - - SSE 0,0
07.12.2018 09:00:00 5,8 2,5 26 14 - - SE 0,0
07.12.2018 08:00:00 6,7 3,2 26 14 - - S 0,0
07.12.2018 07:00:00 7,4 4,6 35 19 54 29 SSE 0,0
07.12.2018 06:00:00 7,3 5,5 37 20 54 29 SE 0,0
07.12.2018 05:00:00 7,4 5,1 44 24 59 32 SE 0,0
07.12.2018 04:00:00 6,7 5,3 24 13 - - SE 1,0
07.12.2018 03:00:00 6,8 4,4 22 12 - - SE 0,0
07.12.2018 02:00:00 7,5 4,0 22 12 - - SE 0,0
07.12.2018 01:00:00 7,1 4,2 22 12 - - SSE 0,0
07.12.2018 00:00:00 6,3 3,5 15 8 - - ESE 0,0
06.12.2018 23:00:00 6,2 2,6 15 8 - - SSE 0,0
06.12.2018 22:00:00 5,2 2,5 8 4 - - SSE 0,0
06.12.2018 21:00:00 7,4 3,3 4 2 - - S 0,0
06.12.2018 20:00:00 7,8 3,4 5 3 - - OSO 0,0
06.12.2018 19:00:00 7,4 3,7 21 11 - - O 0,0
06.12.2018 18:00:00 8,2 4,8 16 9 - - O 0,0
06.12.2018 17:00:00 8,1 4,9 13 7 52 28 NNO 0,0
06.12.2018 16:00:00 8,3 4,2 34 18 68 37 O 0,0
06.12.2018 15:00:00 8,4 4,6 28 15 - - O 0,0
06.12.2018 14:00:00 9,3 6,0 18 10 - - O 0,0
06.12.2018 13:00:00 9,8 7,4 18 10 - - O 0,0
06.12.2018 12:00:00 8,2 7,0 8 4 - - SSO 0,0
06.12.2018 11:00:00 7,9 6,1 22 12 - - SE 0,0
06.12.2018 10:00:00 7,1 5,8 29 16 - - SE 0,0
06.12.2018 09:00:00 6,6 5,6 29 16 50 27 SE 0,6
06.12.2018 08:00:00 6,1 5,1 31 17 46 25 SE 1,8
06.12.2018 07:00:00 6,1 5,0 26 14 - - SE 0,2
06.12.2018 06:00:00 6,5 4,9 35 19 50 27 SSE 0,0
06.12.2018 05:00:00 6,5 5,1 34 18 50 27 SE 0,0
06.12.2018 04:00:00 6,1 5,2 26 14 - - SSE 0,0
06.12.2018 03:00:00 6,0 5,2 22 12 - - SSE 0,0
06.12.2018 02:00:00 5,9 4,8 28 15 - - SE 0,0
06.12.2018 01:00:00 5,7 4,4 24 13 - - SE 0,0
06.12.2018 00:00:00 5,3 4,0 16 9 - - SSE 0,0
05.12.2018 23:00:00 5,2 3,5 16 9 - - SE 0,0
05.12.2018 22:00:00 5,2 3,8 21 11 - - SE 0,0
05.12.2018 21:00:00 4,2 2,7 9 5 - - SE 0,0
05.12.2018 20:00:00 4,1 2,2 11 6 - - SE 0,2
05.12.2018 19:00:00 2,2 0,3 8 4 - - SE 0,0
05.12.2018 18:00:00 0,7 -0,6 9 5 - - SSE 0,0
05.12.2018 17:00:00 -0,9 -1,7 5 3 - - ESE 0,0
05.12.2018 16:00:00 1,7 -0,1 13 7 - - SE 0,0
05.12.2018 15:00:00 -1,0 -2,5 2 1 - - ESE 0,0
05.12.2018 14:00:00 -0,8 -2,0 4 2 - - NNO 0,0
05.12.2018 13:00:00 -0,3 -2,3 2 1 - - SSE 0,0
05.12.2018 12:00:00 -2,9 -3,5 2 1 - - SE 0,0
05.12.2018 11:00:00 -6,4 -7,1 2 1 - - S 0,0
05.12.2018 10:00:00 -7,3 -8,4 2 1 - - SO 0,0
05.12.2018 09:00:00 -6,1 -6,9 4 2 - - SE 0,0
05.12.2018 08:00:00 -6,4 -7,2 5 3 - - SSE 0,0
05.12.2018 07:00:00 -5,9 -6,9 2 1 - - SE 0,0
05.12.2018 06:00:00 -5,4 -6,4 8 4 - - S 0,0
05.12.2018 05:00:00 -4,9 -5,9 4 2 - - SSE 0,0
05.12.2018 04:00:00 -3,3 -4,0 4 2 - - SE 0,0
05.12.2018 03:00:00 -2,7 -3,5 5 3 - - S 0,0
05.12.2018 02:00:00 -1,5 -2,2 5 3 - - ESE 0,0
05.12.2018 01:00:00 -1,7 -2,7 4 2 - - E 0,0

tt = Temperatura
td = dewpoint
ff = velocità del vento
fx = gusts
dd = direzione del vento
rr = precipitazioni

Stazioni seguenti

WeatherPro
AMSI
MeteoEarth